User: anonymous   Login
Location: Iesi
(43.5167°N, 13.2333°E)
Time: 13:48:58
(UTC+00:00)
Language:

SL-4 R/B - Orbit

View from above orbital plane
View from above orbital plane
View from above satellite
View from above satellite

Ground track
Ground track

The orbit data is extracted from the following two-line orbital elements,

1 39679U 14021B   21342.84334397  .00000251  00000-0  29983-4 0  9998
2 39679  51.6148 122.6652 0168802  16.3656 344.2673 15.07438714420350
Epoch (UTC): 08 December 2021 20:14:24
Eccentricity: 0.0168802
inclination: 51.6148°
perigee height: 427 km
apogee height: 661 km
right ascension of ascending node: 122.6652°
argument of perigee: 16.3656°
revolutions per day: 15.07438714
mean anomaly at epoch: 344.2673°
orbit number at epoch: 42035

The dashed part of the orbit path shows where the satellite is in the earth's shadow,  

DLR